Weather History for Staples, MN

Change the Weather History Date:

Monday, March 4, 2013

  Actual Average Record
Temperature  
Mean Temperature 22 °F -  
Max Temperature 24 °F 24 °F 39 °F (2005)
Min Temperature 19 °F 8 °F -14 °F (2003)
Degree Days  
Heating Degree Days 44    
Moisture  
Dew Point 16 °F    
Average Humidity 79    
Maximum Humidity 93    
Minimum Humidity 40    
Precipitation  
Precipitation 0.07 in - - ()
Sea Level Pressure  
Sea Level Pressure 29.92 in    
Wind  
Wind Speed 9 mph (ESE)    
Max Wind Speed 15 mph    
Max Gust Speed 22 mph    
Visibility 6 miles    
Events Snow    
Averages and records for this station are not official NWS values.
T = Trace of Precipitation, MM = Missing Value Source: NWS Daily Summary

Daily Weather History Graph

Daily Weather History Graph

Search for Another Location

Airport:

Trip Planner

Search our weather history database for the weather conditions in past years. The results will help you decide how hot, cold, wet, or windy it might be!

Date:

Astronomy

Mar. 04, 2013 Rise Set
Actual Time 6:52 AM CST 6:10 PM CST
Civil Twilight 6:22 AM CST 6:40 PM CST
Nautical Twilight 5:47 AM CST 7:15 PM CST
Astronomical Twilight 5:12 AM CST 7:50 PM CST
Moon 1:17 AM CST (3/4) 10:37 AM CST (3/4)
Length of Visible Light 12h 17m
Length of Day
11h 17m
Waning Gibbous, 52% of the Moon is Illuminated
Mar 4
Waning Gibbous
Mar 4
Last Quarter
Mar 11
New
Mar 19
First Quarter
Mar 27
Full

Hourly Weather History & Observations

Time (CST) Temp. Windchill Dew Point Humidity Pressure Visibility Wind Dir Wind Speed Gust Speed Precip Events Conditions
12:13 AM 24.8 °F 16.9 °F 5.0 °F 43% 29.92 in 10.0 mi ESE 6.9 mph - N/A   Overcast
12:34 AM 24.8 °F 14.0 °F 3.2 °F 40% 29.92 in 10.0 mi ESE 11.5 mph 18.4 mph N/A   Overcast
12:53 AM 24.8 °F 16.1 °F 3.2 °F 40% 29.92 in 10.0 mi ESE 8.1 mph 17.3 mph N/A   Mostly Cloudy
1:13 AM 24.8 °F 14.6 °F 5.0 °F 43% 29.92 in 10.0 mi SE 10.4 mph 17.3 mph N/A   Mostly Cloudy
1:53 AM 24.8 °F 14.0 °F 6.8 °F 46% 29.92 in 10.0 mi SE 11.5 mph 18.4 mph N/A   Overcast
2:13 AM 24.8 °F 15.3 °F 6.8 °F 46% 29.91 in 10.0 mi SE 9.2 mph 17.3 mph N/A   Overcast
2:34 AM 24.8 °F 12.4 °F 8.6 °F 50% 29.91 in 10.0 mi SE 15.0 mph 21.9 mph N/A   Overcast
2:53 AM 24.8 °F 15.3 °F 10.4 °F 54% 29.90 in 10.0 mi SE 9.2 mph 17.3 mph N/A   Overcast
3:13 AM 24.8 °F 14.6 °F 10.4 °F 54% 29.90 in 10.0 mi ESE 10.4 mph 18.4 mph N/A   Overcast
3:33 AM 24.8 °F 14.6 °F 8.6 °F 50% 29.89 in 10.0 mi ESE 10.4 mph - N/A   Overcast
3:53 AM 24.8 °F 16.1 °F 8.6 °F 50% 29.89 in 10.0 mi ESE 8.1 mph 18.4 mph N/A   Overcast
4:14 AM 24.8 °F 16.9 °F 6.8 °F 46% 29.89 in 10.0 mi ESE 6.9 mph 17.3 mph N/A   Overcast
4:33 AM 24.8 °F 16.9 °F 6.8 °F 46% 29.89 in 10.0 mi ESE 6.9 mph - N/A   Overcast
4:53 AM 24.8 °F 15.3 °F 6.8 °F 46% 29.89 in 10.0 mi ESE 9.2 mph - N/A   Overcast
5:13 AM 24.8 °F 15.3 °F 6.8 °F 46% 29.89 in 10.0 mi ESE 9.2 mph 17.3 mph N/A   Overcast
5:54 AM 23.0 °F 11.7 °F 8.6 °F 54% 29.89 in 10.0 mi ESE 11.5 mph 17.3 mph N/A   Overcast
6:13 AM 23.0 °F 10.6 °F 12.2 °F 63% 29.89 in 10.0 mi SE 13.8 mph 19.6 mph N/A   Overcast
6:33 AM 23.0 °F 11.7 °F 12.2 °F 63% 29.90 in 7.0 mi SE 11.5 mph 19.6 mph N/A Snow Light Snow
6:54 AM 21.2 °F 8.9 °F 15.8 °F 80% 29.90 in 4.0 mi ESE 12.7 mph 16.1 mph N/A Snow Light Snow
7:13 AM 21.2 °F 10.9 °F 17.6 °F 86% 29.90 in 1.8 mi ESE 9.2 mph 18.4 mph N/A Snow Light Snow
7:33 AM 19.4 °F 7.9 °F 17.6 °F 93% 29.91 in 1.8 mi ESE 10.4 mph - N/A Snow Light Snow
7:54 AM 19.4 °F 7.9 °F 17.6 °F 93% 29.91 in 3.0 mi ESE 10.4 mph - N/A Snow Light Snow
8:13 AM 19.4 °F 8.6 °F 17.6 °F 93% 29.91 in 2.5 mi ESE 9.2 mph 16.1 mph N/A Snow Light Snow
8:34 AM 21.2 °F 10.1 °F 17.6 °F 86% 29.91 in 3.0 mi ESE 10.4 mph 16.1 mph N/A Snow Light Snow
8:53 AM 21.2 °F 10.1 °F 17.6 °F 86% 29.91 in 3.0 mi ESE 10.4 mph - N/A Snow Light Snow
9:13 AM 21.2 °F 10.9 °F 17.6 °F 86% 29.91 in 2.0 mi ESE 9.2 mph - N/A Snow Light Snow
9:34 AM 21.2 °F 11.7 °F 19.4 °F 93% 29.90 in 2.0 mi SE 8.1 mph - N/A Snow Light Snow
9:53 AM 21.2 °F 10.9 °F 19.4 °F 93% 29.91 in 2.0 mi SE 9.2 mph 17.3 mph N/A   Overcast
10:13 AM 21.2 °F 10.1 °F 17.6 °F 86% 29.90 in 3.0 mi ESE 10.4 mph 18.4 mph N/A Snow Light Snow
10:34 AM 21.2 °F 9.5 °F 17.6 °F 86% 29.90 in 10.0 mi ESE 11.5 mph 19.6 mph N/A   Overcast
10:53 AM 21.2 °F 10.1 °F 17.6 °F 86% 29.90 in 2.0 mi ESE 10.4 mph 16.1 mph N/A Snow Light Snow
11:13 AM 21.2 °F 9.5 °F 17.6 °F 86% 29.89 in 2.0 mi ESE 11.5 mph 20.7 mph N/A Snow Light Snow
11:34 AM 21.2 °F 10.1 °F 17.6 °F 86% 29.90 in 7.0 mi ESE 10.4 mph 19.6 mph 0.01 in Snow Light Snow
11:53 AM 21.2 °F 11.7 °F 17.6 °F 86% 29.90 in 4.0 mi SE 8.1 mph 17.3 mph 0.01 in Snow Light Snow
12:13 PM 21.2 °F 10.9 °F 17.6 °F 86% 29.91 in 3.0 mi SE 9.2 mph - N/A Snow Light Snow
12:53 PM 21.2 °F 11.7 °F 17.6 °F 86% 29.90 in 7.0 mi SE 8.1 mph 19.6 mph 0.01 in Snow Light Snow
1:13 PM 21.2 °F 11.7 °F 17.6 °F 86% 29.90 in 10.0 mi SE 8.1 mph - N/A Snow Light Snow
1:34 PM 21.2 °F 11.7 °F 17.6 °F 86% 29.90 in 5.0 mi SE 8.1 mph - N/A Snow Light Snow
1:53 PM 21.2 °F 12.6 °F 17.6 °F 86% 29.90 in 7.0 mi SE 6.9 mph - N/A Snow Light Snow
2:13 PM 23.0 °F 13.9 °F 17.6 °F 80% 29.90 in 10.0 mi SE 8.1 mph - 0.01 in Snow Light Snow
2:34 PM 23.0 °F 13.1 °F 17.6 °F 80% 29.90 in 10.0 mi ESE 9.2 mph 18.4 mph 0.01 in   Overcast
2:53 PM 23.0 °F 13.9 °F 17.6 °F 80% 29.91 in 10.0 mi ESE 8.1 mph - 0.01 in   Overcast
3:13 PM 23.0 °F 14.7 °F 17.6 °F 80% 29.91 in 7.0 mi SE 6.9 mph - N/A Snow Light Snow
3:34 PM 23.0 °F 13.1 °F 17.6 °F 80% 29.92 in 7.0 mi SE 9.2 mph - N/A Snow Light Snow
3:53 PM 23.0 °F 13.9 °F 19.4 °F 86% 29.92 in 7.0 mi SE 8.1 mph - N/A Snow Light Snow
4:13 PM 21.2 °F 10.9 °F 19.4 °F 93% 29.92 in 1.0 mi SE 9.2 mph - 0.01 in Snow Light Snow
4:34 PM 21.2 °F 12.6 °F 19.4 °F 93% 29.92 in 1.2 mi ESE 6.9 mph - 0.01 in Snow Light Snow
4:53 PM 21.2 °F 12.6 °F 19.4 °F 93% 29.92 in 3.0 mi SE 6.9 mph - 0.02 in Snow Light Snow
5:13 PM 21.2 °F 10.9 °F 19.4 °F 93% 29.92 in 2.0 mi ESE 9.2 mph - N/A Snow Light Snow
5:34 PM 21.2 °F 14.9 °F 19.4 °F 93% 29.93 in 1.5 mi ESE 4.6 mph - N/A   Overcast
5:53 PM 21.2 °F 12.6 °F 19.4 °F 93% 29.94 in 1.0 mi ESE 6.9 mph - N/A Snow Light Snow
6:13 PM 21.2 °F 14.9 °F 19.4 °F 93% 29.94 in 1.2 mi ESE 4.6 mph - N/A Snow Light Snow
6:34 PM 21.2 °F 12.6 °F 19.4 °F 93% 29.94 in 1.2 mi East 6.9 mph - N/A Snow Light Snow
6:53 PM 21.2 °F 12.6 °F 19.4 °F 93% 29.95 in 2.5 mi East 6.9 mph - N/A Snow Light Snow
7:14 PM 21.2 °F 13.6 °F 19.4 °F 93% 29.96 in 2.5 mi ESE 5.8 mph - N/A Snow Light Snow
7:33 PM 21.2 °F 13.6 °F 19.4 °F 93% 29.96 in 1.5 mi ESE 5.8 mph - N/A Snow Light Snow
7:53 PM 21.2 °F 14.9 °F 19.4 °F 93% 29.97 in 7.0 mi ESE 4.6 mph - 0.01 in Snow Light Snow
8:14 PM 21.2 °F 12.6 °F 19.4 °F 93% 29.98 in 3.0 mi ESE 6.9 mph - N/A Snow Light Snow
8:33 PM 21.2 °F 14.9 °F 19.4 °F 93% 29.98 in 7.0 mi ESE 4.6 mph - N/A Snow Light Snow
8:53 PM 21.2 °F 13.6 °F 19.4 °F 93% 29.98 in 7.0 mi ESE 5.8 mph - 0.01 in Snow Light Snow
9:14 PM 21.2 °F 14.9 °F 19.4 °F 93% 29.97 in 4.0 mi ESE 4.6 mph - N/A Snow Light Snow
9:33 PM 21.2 °F 13.6 °F 19.4 °F 93% 29.97 in 4.0 mi East 5.8 mph - N/A Snow Light Snow
9:53 PM 21.2 °F 12.6 °F 19.4 °F 93% 29.98 in 4.0 mi ESE 6.9 mph - N/A Snow Light Snow
10:14 PM 21.2 °F 13.6 °F 19.4 °F 93% 29.98 in 5.0 mi SE 5.8 mph - N/A Snow Light Snow
10:33 PM 21.2 °F 11.7 °F 19.4 °F 93% 29.98 in 7.0 mi ESE 8.1 mph - N/A   Overcast
10:53 PM 21.2 °F 13.6 °F 19.4 °F 93% 29.99 in 10.0 mi ESE 5.8 mph - N/A   Overcast
11:14 PM 21.2 °F 13.6 °F 19.4 °F 93% 29.98 in 10.0 mi ESE 5.8 mph - N/A   Overcast
11:33 PM 21.2 °F 12.6 °F 19.4 °F 93% 29.98 in 7.0 mi ESE 6.9 mph - N/A   Overcast
11:53 PM 21.2 °F 14.9 °F 19.4 °F 93% 29.97 in 7.0 mi East 4.6 mph - N/A Snow Light Snow